Location: Newark
(7.0858°N, 171.3717°E)
Time: 20:14:07
(UTC+00:00)

Tiros 1 - Pass Details

Date: 01 December 2020
Orbit: 630 x 663 km, 48.4° (Epoch: 18 January)

Event Time Altitude Azimuth Distance (km) Brightness Sun altitude
Rises 09:52:37 0° 354° (N) 2,941 - -50.7°
Reaches altitude 10° 09:57:15 10° 36° (NE) 2,022 - -51.7°
Maximum altitude 09:58:00 10° 45° (NE) 1,998 - -51.9°
Drops below altitude 10° 09:58:46 10° 55° (NE) 2,020 - -52.1°
Sets 10:03:21 0° 96° (E) 2,920 - -53.1°
